STARLINK-38001, 69828

Orbit data source: Space-Track

STARLINK-38001, 69828 is a payload satellite owned by SpaceX/Seattle (US) in LEO that was launched on Sun, 05 Jul 2026 UTC via an FALCON 9 launch vehicle from the Air Force Eastern Test Range (AFETR). Payload-class satellites include a variety of spacecraft equipped with specific instruments for various scientific and technological missions. These include communications satellites like Starlink; space stations such as the ISS; scientific satellites like the Hubble; Earth observation satellites from companies like Planet Labs, Umbra, and HawkEye 360; GPS; miniature CubeSats for education and research; and military/defense satellites.

Loading next visibility...
Identifier
69828, 2026-154K
Orbit
LEO
Country
Flag of USUS
Related business
Manufacturer
SpaceX/Seattle
Mission
Operational spacecraft
Bus & Motor
STARLINK V2MO, Unknown motor
Mass
575 kg wet, ~530 kg dry
Launch date (UTC)
2026-07-05 (2 months ago)
Launch vehicle
FALCON 9
Launch site
Air Force Eastern Test Range (AFETR)
Object type
Payload
Rocket body
Debris
Shape & HBR
BOX + PAN, 17.7 m
Radar Cross Section
Large (>1 m²)

Expand to show TLE details & history
Last TLE update: 7 hours ago

TLE from 7 hours ago
0 STARLINK-38001
1 69828U 26154K   26236.59014281  .00028316  00000-0  81898-3 0  9997
2 69828  53.1584  97.7495 0001671  94.7269 265.3925 15.35423830  9100
Epoch: 2026-08-24T14:09Z
TLE epoch observation values (Epoch: 2026-08-24T14:09:48.338Z)
Latitude
-0.00003°
Longitude
-87.57159°
Altitude
460.655 km
Speed
7.638 km/s
True Right ascension
06h 30m 59s
True Declination
0° 00' 00"
Sunlit
Object was in daylight at epoch
Visualization orbit readout
Latitude
Unknown
Longitude
Unknown
Altitude
Unknown
Speed
Unknown
Apparent Right ascension
Unknown
Apparent Declination
Unknown
Sunlit
N/A
Visualization observer readout
Local Sidereal Time
12:09:42
Azimuth
Unknown
Elevation
Unknown
Doppler factor
Unknown
Orbital elements
Apogee altitude
461.062 km
Perigee altitude
458.777 km
Semi-major axis
6,838.056 km
Eccentricity
0.00017
Inclination
53.1584°
RAAN
97.7495°
Arg. of periapsis
94.7269°
True anomaly
265.37341°
Mean anomaly
265.3925°
Eccentric anomaly
265.38296°
Mean motion
3.83835 °/min
Orbital period
93.79 mins
BSTAR
0.00081898
Loading maneuver chart data...
Computing Atmospheric mass density...
Loading historical data...
Loading historical data...
Loading historical data...
Loading historical data...
Loading historical data...
Loading historical data...
Loading historical data...

Documentation

Showing up to 5 results
|